timestamp,wind_dir_avg,wind_spd_avg,wind_spd_max_dir,wind_spd_gust,battery_voltage,lat,long
2021-06-19 00:04:01+00:00,212.0,7.48,215.0,8.18,13.53,47.59359,-54.27349
2021-06-19 00:14:01+00:00,205.0,8.11,206.0,8.95,12.97,47.59359,-54.27349
2021-06-19 00:24:01+00:00,212.0,8.04,213.0,8.95,12.97,47.59359,-54.27349
2021-06-19 00:34:01+00:00,212.0,8.32,211.0,9.25,12.97,47.59359,-54.27349
2021-06-19 00:44:01+00:00,212.0,8.04,211.0,9.76,12.97,47.59359,-54.27349
2021-06-19 00:54:01+00:00,211.0,7.53,207.0,8.23,12.97,47.59359,-54.27349
2021-06-19 01:04:01+00:00,206.0,7.27,203.0,8.67,12.97,47.59359,-54.27349
2021-06-19 01:14:00+00:00,208.0,6.68,210.0,7.13,12.65,47.59359,-54.27349
2021-06-19 01:24:00+00:00,214.0,6.23,209.0,7.0,12.65,47.59359,-54.27349
2021-06-19 01:34:00+00:00,212.0,6.83,211.0,7.55,12.65,47.59359,-54.27349
2021-06-19 01:44:00+00:00,213.0,4.81,211.0,5.57,12.65,47.59359,-54.27349
2021-06-19 01:54:00+00:00,216.0,4.9,217.0,5.55,12.65,47.59359,-54.27349
2021-06-19 02:04:00+00:00,214.0,5.14,221.0,6.25,12.65,47.59359,-54.27349
2021-06-19 02:14:01+00:00,219.0,5.34,218.0,6.09,12.57,47.59359,-54.27349
2021-06-19 02:24:01+00:00,221.0,4.65,217.0,5.45,12.57,47.59359,-54.27349
2021-06-19 02:34:01+00:00,218.0,5.75,218.0,6.35,12.57,47.59359,-54.27349
2021-06-19 02:44:01+00:00,221.0,5.54,222.0,6.19,12.57,47.59359,-54.27349
2021-06-19 02:54:01+00:00,226.0,5.33,223.0,5.9,12.57,47.59359,-54.27349
2021-06-19 03:04:01+00:00,217.0,7.93,217.0,9.04,12.57,47.59359,-54.27349
2021-06-19 03:14:01+00:00,218.0,7.12,217.0,7.93,12.57,47.59359,-54.27349
2021-06-19 03:24:01+00:00,223.0,6.54,226.0,7.43,12.57,47.59359,-54.27349
2021-06-19 03:34:01+00:00,227.0,5.8,225.0,6.6,12.57,47.59359,-54.27349
2021-06-19 03:44:01+00:00,224.0,4.73,223.0,5.24,12.57,47.59359,-54.27349
2021-06-19 03:54:01+00:00,212.0,6.72,217.0,7.48,12.57,47.59359,-54.27349
2021-06-19 04:04:01+00:00,215.0,6.13,217.0,6.48,12.57,47.59359,-54.27349
2021-06-19 04:14:00+00:00,218.0,5.63,216.0,6.27,12.57,47.59359,-54.27349
2021-06-19 04:24:00+00:00,214.0,5.08,214.0,5.67,12.57,47.59359,-54.27349
2021-06-19 04:34:00+00:00,213.0,5.33,211.0,6.08,12.57,47.59359,-54.27349
2021-06-19 04:44:00+00:00,222.0,5.27,214.0,6.2,12.57,47.59359,-54.27349
2021-06-19 04:54:00+00:00,221.0,5.22,221.0,5.68,12.57,47.59359,-54.27349
2021-06-19 05:04:00+00:00,216.0,5.73,215.0,6.09,12.57,47.59359,-54.27349
2021-06-19 05:14:01+00:00,227.0,5.12,230.0,5.92,12.57,47.59359,-54.27349
2021-06-19 05:24:01+00:00,222.0,4.38,224.0,4.98,12.57,47.59359,-54.27349
2021-06-19 05:34:01+00:00,218.0,2.81,219.0,3.19,12.57,47.59359,-54.27349
2021-06-19 05:44:01+00:00,228.0,2.2,223.0,2.73,12.57,47.59359,-54.27349
2021-06-19 05:54:01+00:00,229.0,2.36,232.0,2.88,12.57,47.59359,-54.27349
2021-06-19 06:04:01+00:00,223.0,3.05,224.0,3.23,12.57,47.59359,-54.27349
2021-06-19 06:14:01+00:00,211.0,3.56,211.0,3.71,12.49,47.59359,-54.27349
2021-06-19 06:24:01+00:00,279.0,1.52,277.0,1.88,12.49,47.59359,-54.27349
2021-06-19 06:34:01+00:00,270.0,0.66,267.0,0.73,12.49,47.59359,-54.27349
2021-06-19 06:44:01+00:00,240.0,0.42,246.0,0.56,12.49,47.59359,-54.27349
2021-06-19 06:54:01+00:00,247.0,0.84,254.0,0.93,12.49,47.59359,-54.27349
2021-06-19 07:04:01+00:00,264.0,0.51,261.0,0.69,12.49,47.59359,-54.27349
2021-06-19 07:14:00+00:00,299.0,0.32,313.0,0.59,12.49,47.59359,-54.27349
2021-06-19 07:24:00+00:00,31.0,0.96,45.0,1.27,12.49,47.59359,-54.27349
2021-06-19 07:34:00+00:00,28.0,1.46,29.0,1.68,12.49,47.59359,-54.27349
2021-06-19 07:44:00+00:00,94.0,0.69,98.0,0.88,12.49,47.59359,-54.27349
2021-06-19 07:54:00+00:00,116.0,0.78,107.0,0.91,12.49,47.59359,-54.27349
2021-06-19 08:04:00+00:00,159.0,1.04,143.0,1.28,12.49,47.59359,-54.27349
2021-06-19 08:14:01+00:00,88.0,1.14,87.0,1.5,12.41,47.59359,-54.27349
2021-06-19 08:24:01+00:00,163.0,0.99,158.0,1.21,12.41,47.59359,-54.27349
2021-06-19 08:34:01+00:00,52.0,0.54,50.0,0.79,12.41,47.59359,-54.27349
2021-06-19 08:44:01+00:00,29.0,0.51,20.0,0.57,12.41,47.59359,-54.27349
2021-06-19 08:54:01+00:00,62.0,1.23,58.0,1.45,12.41,47.59359,-54.27349
2021-06-19 09:04:01+00:00,101.0,0.7,96.0,0.94,12.41,47.59359,-54.27349
2021-06-19 09:14:01+00:00,9.0,0.5,347.0,0.71,12.89,47.59359,-54.27349
2021-06-19 09:24:01+00:00,1.0,1.01,5.0,1.17,12.89,47.59359,-54.27349
2021-06-19 09:34:01+00:00,2.0,1.4,0.0,1.55,12.89,47.59359,-54.27349
2021-06-19 09:44:01+00:00,6.0,2.18,8.0,2.38,12.89,47.59359,-54.27349
2021-06-19 09:54:01+00:00,20.0,2.88,21.0,3.06,12.89,47.59359,-54.27349
2021-06-19 10:04:01+00:00,36.0,2.44,30.0,3.04,12.89,47.59359,-54.27349
2021-06-19 10:14:00+00:00,27.0,3.15,27.0,3.49,13.76,47.59359,-54.27349
2021-06-19 10:24:00+00:00,6.0,2.75,10.0,3.26,13.76,47.59359,-54.27349
2021-06-19 10:34:00+00:00,27.0,2.7,26.0,2.97,13.76,47.59359,-54.27349
2021-06-19 10:44:00+00:00,45.0,2.12,46.0,2.34,13.76,47.59359,-54.27349
2021-06-19 10:54:00+00:00,47.0,1.6,52.0,1.78,13.76,47.59359,-54.27349
2021-06-19 11:04:00+00:00,66.0,1.03,67.0,1.31,13.76,47.59359,-54.27349
2021-06-19 11:14:01+00:00,90.0,0.69,77.0,1.01,13.76,47.59359,-54.27349
2021-06-19 11:24:01+00:00,123.0,0.69,129.0,0.92,13.76,47.59359,-54.27349
2021-06-19 11:34:01+00:00,137.0,1.3,137.0,1.54,13.76,47.59359,-54.27349
2021-06-19 11:44:01+00:00,164.0,0.97,153.0,1.24,13.76,47.59359,-54.27349
2021-06-19 11:54:01+00:00,199.0,0.99,205.0,1.26,13.76,47.59359,-54.27349
2021-06-19 12:04:01+00:00,178.0,1.11,181.0,1.41,13.76,47.59359,-54.27349
2021-06-19 12:14:01+00:00,152.0,1.25,149.0,1.45,13.76,47.59359,-54.27349
2021-06-19 12:24:01+00:00,189.0,1.97,189.0,2.36,13.76,47.59359,-54.27349
2021-06-19 12:34:01+00:00,203.0,1.31,208.0,1.53,13.76,47.59359,-54.27349
2021-06-19 12:44:01+00:00,249.0,1.88,257.0,2.1,13.76,47.59359,-54.27349
2021-06-19 12:54:01+00:00,252.0,2.92,250.0,3.12,13.76,47.59359,-54.27349
2021-06-19 13:04:01+00:00,264.0,3.24,265.0,3.47,13.76,47.59359,-54.27349
2021-06-19 13:14:01+00:00,268.0,2.85,266.0,3.03,13.76,47.59359,-54.27349
2021-06-19 13:24:01+00:00,230.0,2.32,231.0,2.54,13.76,47.59359,-54.27349
2021-06-19 13:34:01+00:00,195.0,3.01,194.0,3.29,13.76,47.59359,-54.27349
2021-06-19 13:44:01+00:00,201.0,3.27,201.0,3.52,13.76,47.59359,-54.27349
2021-06-19 13:54:01+00:00,199.0,3.68,201.0,4.39,13.76,47.59359,-54.27349
2021-06-19 14:04:01+00:00,202.0,3.93,203.0,4.38,13.76,47.59359,-54.27349
2021-06-19 14:14:01+00:00,203.0,5.83,204.0,6.49,13.84,47.59359,-54.27349
2021-06-19 14:24:01+00:00,202.0,6.07,199.0,7.48,13.84,47.59359,-54.27349
2021-06-19 14:34:01+00:00,196.0,6.74,199.0,7.15,13.84,47.59359,-54.27349
2021-06-19 14:44:01+00:00,208.0,7.03,211.0,7.61,13.84,47.59359,-54.27349
2021-06-19 14:54:01+00:00,205.0,8.47,205.0,9.33,13.84,47.59359,-54.27349
2021-06-19 15:04:01+00:00,206.0,7.91,206.0,8.78,13.84,47.59359,-54.27349
2021-06-19 15:14:01+00:00,207.0,7.77,205.0,8.51,14.0,47.59359,-54.27349
2021-06-19 15:24:01+00:00,210.0,7.21,203.0,9.21,14.0,47.59359,-54.27349
2021-06-19 15:34:01+00:00,208.0,7.49,208.0,8.28,14.0,47.59359,-54.27349
2021-06-19 15:44:01+00:00,206.0,6.44,200.0,8.1,14.0,47.59359,-54.27349
2021-06-19 15:54:01+00:00,209.0,7.27,210.0,7.77,14.0,47.59359,-54.27349
2021-06-19 16:04:01+00:00,206.0,6.95,206.0,7.49,14.0,47.59359,-54.27349
2021-06-19 16:14:01+00:00,203.0,6.64,205.0,7.23,14.16,47.59359,-54.27349
2021-06-19 16:24:01+00:00,203.0,7.48,202.0,8.42,14.16,47.59359,-54.27349
2021-06-19 16:34:01+00:00,202.0,8.1,199.0,8.81,14.16,47.59359,-54.27349
2021-06-19 16:44:01+00:00,205.0,6.89,203.0,7.87,14.16,47.59359,-54.27349
2021-06-19 16:54:01+00:00,206.0,7.77,205.0,8.87,14.16,47.59359,-54.27349
2021-06-19 17:04:01+00:00,210.0,7.82,212.0,8.62,14.16,47.59359,-54.27349
2021-06-19 17:14:01+00:00,202.0,6.36,206.0,7.38,13.92,47.59359,-54.27349
2021-06-19 17:24:01+00:00,201.0,6.25,206.0,6.9,13.92,47.59359,-54.27349
2021-06-19 17:34:01+00:00,201.0,6.34,199.0,6.81,13.92,47.59359,-54.27349
2021-06-19 17:44:01+00:00,205.0,6.73,207.0,7.47,13.92,47.59359,-54.27349
2021-06-19 17:54:01+00:00,203.0,6.64,208.0,7.61,13.92,47.59359,-54.27349
2021-06-19 18:04:01+00:00,207.0,7.48,204.0,8.39,13.92,47.59359,-54.27349
2021-06-19 18:14:01+00:00,208.0,7.07,209.0,7.75,13.92,47.59359,-54.27349
2021-06-19 18:24:01+00:00,203.0,7.79,203.0,8.8,13.92,47.59359,-54.27349
2021-06-19 18:34:01+00:00,208.0,7.71,207.0,8.4,13.92,47.59359,-54.27349
2021-06-19 18:44:01+00:00,209.0,7.44,209.0,8.49,13.92,47.59359,-54.27349
2021-06-19 18:54:01+00:00,207.0,7.43,206.0,8.18,13.92,47.59359,-54.27349
2021-06-19 19:04:01+00:00,207.0,8.45,205.0,9.24,13.92,47.59359,-54.27349
2021-06-19 19:14:01+00:00,206.0,9.1,211.0,9.95,13.84,47.59359,-54.27349
2021-06-19 19:24:01+00:00,207.0,9.4,211.0,10.16,13.84,47.59359,-54.27349
2021-06-19 19:34:01+00:00,213.0,8.84,217.0,10.61,13.84,47.59359,-54.27349
2021-06-19 19:44:01+00:00,209.0,9.28,214.0,10.65,13.84,47.59359,-54.27349
2021-06-19 19:54:01+00:00,212.0,8.62,214.0,10.08,13.84,47.59359,-54.27349
2021-06-19 20:04:01+00:00,210.0,8.22,214.0,9.93,13.84,47.59359,-54.27349
2021-06-19 20:14:01+00:00,208.0,7.9,212.0,9.32,13.76,47.59359,-54.27349
2021-06-19 20:24:01+00:00,207.0,8.44,205.0,9.41,13.76,47.59359,-54.27349
2021-06-19 20:34:01+00:00,214.0,7.69,213.0,8.51,13.76,47.59359,-54.27349
2021-06-19 20:44:01+00:00,215.0,7.78,215.0,8.42,13.76,47.59359,-54.27349
2021-06-19 20:54:01+00:00,215.0,7.21,216.0,8.1,13.76,47.59359,-54.27349
2021-06-19 21:04:01+00:00,214.0,7.48,214.0,8.06,13.76,47.59359,-54.27349
2021-06-19 21:14:01+00:00,210.0,7.26,209.0,7.99,13.68,47.59359,-54.27349
2021-06-19 21:24:01+00:00,208.0,7.16,208.0,7.49,13.68,47.59359,-54.27349
2021-06-19 21:34:01+00:00,208.0,7.41,206.0,8.19,13.68,47.59359,-54.27349
2021-06-19 21:44:01+00:00,203.0,6.5,203.0,6.95,13.68,47.59359,-54.27349
2021-06-19 21:54:01+00:00,202.0,6.64,206.0,7.1,13.68,47.59359,-54.27349
2021-06-19 22:04:01+00:00,202.0,6.1,203.0,6.7,13.68,47.59359,-54.27349
2021-06-19 22:14:01+00:00,205.0,6.4,209.0,7.06,13.76,47.59359,-54.27349
2021-06-19 22:24:01+00:00,210.0,7.61,210.0,8.43,13.76,47.59359,-54.27349
2021-06-19 22:34:01+00:00,207.0,7.26,209.0,7.92,13.76,47.59359,-54.27349
2021-06-19 22:44:01+00:00,209.0,6.98,210.0,7.64,13.76,47.59359,-54.27349
2021-06-19 22:54:01+00:00,209.0,7.23,209.0,8.1,13.76,47.59359,-54.27349
2021-06-19 23:04:01+00:00,214.0,7.44,214.0,8.31,13.76,47.59359,-54.27349
2021-06-19 23:14:01+00:00,214.0,7.52,212.0,8.16,13.29,47.59359,-54.27349
2021-06-19 23:24:01+00:00,217.0,7.04,218.0,8.09,13.29,47.59359,-54.27349
2021-06-19 23:34:01+00:00,217.0,7.15,216.0,7.74,13.29,47.59359,-54.27349
2021-06-19 23:44:01+00:00,208.0,5.23,211.0,5.84,13.29,47.59359,-54.27349
2021-06-19 23:54:01+00:00,201.0,5.01,208.0,5.77,13.29,47.59359,-54.27349
